Wind_Speed
12 12 12 12 12 12 12 10 10 10 11 11 10 10 9 8 7 6 5 5 4 4 4 3 3 3 3 3 3 3 3 3 2 3 3 3 4 4 5 6 6 6 7
11 11 11 11 11 11 11 11 9 9 10 10 10 9 9 7 6 5 5 5 4 4 4 4 3 3 3 4 4 3 3 3 3 4 4 5 4 5 6 6 7 7 8
9 10 10 10 10 10 10 10 10 9 9 9 8 8 8 7 5 5 5 5 5 4 4 3 4 4 4 4 4 5 4 4 4 5 5 4 5 6 7 7 7 8 9
8 8 9 9 9 9 9 9 9 9 9 9 8 8 7 7 7 5 4 5 4 4 5 5 5 5 6 5 5 5 5 5 6 6 6 6 7 8 8 8 8 9 9
8 7 7 8 8 9 8 8 8 8 8 9 9 8 8 7 7 5 5 5 5 5 6 6 6 7 7 7 7 6 6 7 8 8 8 8 8 9 9 9 10 10 10
7 7 7 7 8 8 8 8 7 7 7 8 8 8 8 8 7 6 6 6 6 6 6 7 7 7 8 8 8 8 7 8 9 9 9 9 9 9 9 10 10 11 11
8 8 7 7 7 8 8 8 7 6 6 7 7 7 8 7 7 7 7 7 7 7 7 8 8 9 9 9 9 9 8 9 9 9 10 10 10 10 10 10 11 12 13
8 8 8 7 7 8 8 8 8 8 7 6 6 7 8 8 8 8 8 8 9 9 9 10 10 10 10 10 9 9 9 9 9 10 10 10 10 11 11 12 12 13 14
9 9 9 9 8 9 9 8 8 8 8 8 7 8 9 9 9 9 9 10 10 10 11 11 11 11 11 11 11 10 10 10 11 11 11 11 11 12 12 13 13 14 15
11 10 10 10 10 10 10 10 10 9 9 9 9 9 10 10 10 11 11 11 11 12 12 12 12 12 12 12 12 12 12 12 12 12 13 13 13 13 13 14 15 15 16
12 12 12 11 12 11 11 11 11 11 12 11 10 11 11 11 12 12 12 12 13 13 13 13 13 13 13 13 13 13 13 13 14 14 14 14 14 14 15 15 16 16 16
13 13 13 13 13 13 13 13 13 13 13 13 12 12 12 12 12 13 13 13 14 14 15 15 15 15 14 14 14 15 15 14 15 15 15 15 16 16 16 17 18 18 18
15 14 13 13 13 12 13 14 15 15 15 13 13 13 13 13 14 14 15 15 15 16 16 16 16 15 15 16 16 17 17 16 16 17 17 18 18 19 19 20 21 21 21
15 14 13 13 13 13 14 15 15 15 15 13 13 13 14 15 16 15 16 16 17 17 16 15 16 16 17 17 18 19 19 18 19 19 20 20 21 21 22 22 23 23 23
17 16 15 15 15 15 16 15 15 15 15 14 14 15 15 15 17 17 17 17 16 16 16 16 17 18 18 18 19 19 19 19 20 21 22 22 22 23 23 24 24 24 24
18 18 18 18 18 17 16 16 16 16 16 15 15 16 16 16 17 18 18 18 16 16 16 17 18 18 19 19 20 20 20 20 20 21 21 22 23 24 24 24 23 23 24
19 18 18 18 18 18 17 17 17 16 16 16 16 17 17 18 18 19 20 19 18 17 17 18 18 19 20 21 21 20 20 21 21 22 22 23 24 24 24 24 24 24 24
20 20 20 19 19 19 18 18 18 19 19 18 18 18 18 18 19 19 20 20 20 18 18 19 19 20 20 20 20 21 22 23 22 22 23 24 24 24 24 25 24 25 26
21 21 21 21 21 21 20 20 20 20 20 20 19 19 20 20 20 20 20 19 20 20 20 20 20 20 21 22 22 23 23 23 24 24 24 24 25 25 25 24 25 26 26
23 22 23 22 22 22 22 22 22 22 22 21 21 21 21 21 22 22 22 21 21 21 20 20 21 22 23 24 24 24 25 26 25 25 24 24 25 25 25 25 26 26 27
24 23 23 23 22 23 23 23 23 23 22 22 22 23 23 23 23 23 22 22 22 22 22 22 23 24 25 25 25 26 27 26 25 25 24 24 25 25 25 26 26 27 28
25 24 24 24 24 24 23 23 22 21 21 22 22 23 23 23 23 23 23 22 23 23 24 24 24 25 26 26 26 26 27 26 25 24 24 24 25 26 27 27 27 28 28
26 25 25 25 24 24 23 23 22 22 22 22 23 23 22 22 22 23 23 23 24 24 25 25 26 26 26 26 26 26 26 26 25 25 25 25 26 26 27 27 28 28 28
27 27 27 26 24 24 23 23 23 24 24 23 23 23 23 23 23 24 24 24 25 25 26 26 26 26 26 26 26 26 26 26 25 25 25 25 26 27 28 28 28 29 29
27 27 26 25 24 24 24 24 24 24 24 24 24 24 24 24 24 24 25 25 25 25 25 25 26 26 26 27 27 26 26 25 25 25 25 26 27 28 29 29 29 30 30
27 27 27 26 25 25 26 26 26 24 24 24 25 25 25 25 26 26 26 25 26 26 25 26 26 26 26 26 26 26 26 25 25 25 25 26 27 28 29 29 30 30 31
Wind_Direction
27 32 35 37 37 37 39 42 43 49 50 52 55 55 54 55 58 60 58 51 49 49 46 38 31 25 15 6 352 336 319 310 324 326 311 290 277 277 281 283 284 286 284
20 26 30 33 35 37 36 39 43 46 47 47 46 46 47 48 50 47 38 34 30 26 18 9 2 354 352 351 343 343 338 326 321 320 316 304 290 288 289 288 285 285 288
17 22 23 26 31 32 32 32 32 36 39 37 39 37 35 33 32 32 20 9 8 3 353 345 345 345 342 335 328 328 328 322 314 307 307 302 299 297 292 289 289 289 287
12 17 16 18 23 24 23 23 24 27 30 31 29 29 26 22 19 15 11 4 358 349 344 336 332 330 328 326 319 317 317 316 315 309 303 298 297 298 293 294 293 292 289
357 4 6 7 10 12 12 12 15 16 19 20 20 21 21 18 17 14 7 359 352 341 336 327 324 323 323 326 321 315 312 315 316 314 308 302 298 294 290 291 291 290 289
345 353 356 355 359 2 0 359 0 4 5 7 6 6 7 7 6 1 351 350 344 337 329 321 316 314 314 317 319 315 309 308 311 313 308 303 300 292 289 290 290 290 290
333 338 343 343 343 348 345 345 344 346 348 352 355 354 353 353 350 345 338 335 333 329 322 316 312 309 309 308 309 306 307 307 307 309 307 302 299 296 291 290 290 290 291
317 325 326 324 323 330 331 329 330 329 329 335 342 343 342 339 336 334 330 326 324 321 316 312 310 307 306 304 306 306 302 303 302 298 303 303 302 298 293 291 290 291 293
300 309 315 316 314 313 315 310 311 316 314 317 327 327 328 327 327 324 322 319 317 315 311 309 310 304 303 305 305 304 300 297 299 296 296 298 300 300 297 296 294 293 293
286 296 302 305 304 303 302 302 302 303 307 312 318 320 318 319 319 319 317 316 315 314 312 307 308 303 300 298 297 297 297 294 295 295 295 298 299 299 302 302 298 295 293
279 286 292 294 295 295 297 303 303 304 303 303 308 310 312 314 313 312 313 314 314 311 311 308 304 301 300 300 299 298 297 295 298 298 299 300 300 300 301 302 301 297 293
276 283 287 286 287 288 292 295 297 300 298 296 299 302 305 310 311 309 308 308 310 309 307 306 306 305 298 295 295 295 293 293 298 299 298 299 299 299 300 300 300 299 298
275 279 282 282 285 288 292 293 296 297 297 291 293 300 301 304 305 307 308 307 307 307 305 303 303 302 300 294 294 295 291 290 293 295 294 298 297 298 299 300 299 298 298
270 272 275 277 282 286 290 291 291 292 292 295 295 297 299 300 301 304 306 307 307 307 302 301 303 301 300 297 295 294 293 291 292 294 293 294 295 296 297 298 299 297 295
264 268 272 274 280 284 286 288 291 291 294 296 294 296 298 301 303 302 301 305 307 304 300 301 302 301 301 303 300 296 293 292 292 292 293 293 295 295 296 296 298 297 295
263 266 270 272 276 279 281 282 287 290 292 291 290 293 295 298 301 301 298 301 301 301 300 301 302 302 303 304 302 300 296 292 293 293 295 296 296 296 296 296 298 298 297
263 269 274 274 275 275 278 279 283 287 289 290 291 293 295 297 298 301 303 301 300 298 299 301 300 300 302 304 302 300 298 294 295 294 295 298 298 296 295 296 297 298 298
263 267 271 274 276 278 281 284 286 288 288 289 290 291 295 297 298 299 300 300 301 300 298 301 301 301 303 302 300 301 301 299 296 297 299 298 300 298 296 296 298 298 297
263 266 271 275 277 278 279 283 283 283 285 285 286 288 293 296 297 300 302 298 298 299 298 299 300 301 302 301 302 302 303 301 299 298 300 299 299 299 299 297 296 297 297
264 267 271 274 277 277 277 281 282 282 283 283 284 286 289 292 294 296 297 298 297 297 298 298 299 299 300 301 301 302 302 300 298 298 298 297 297 299 301 299 299 298 299
263 266 270 272 274 276 278 280 281 283 281 282 287 286 288 289 291 294 296 297 298 298 298 298 299 298 299 299 299 300 301 301 302 300 298 297 298 300 303 302 301 300 300
262 263 267 270 273 276 277 279 282 285 284 286 289 289 289 287 288 291 294 296 296 296 296 296 296 296 297 297 298 300 300 300 301 301 300 300 300 302 303 302 302 302 302
260 262 266 268 273 275 276 277 281 284 286 288 288 288 288 288 288 290 292 293 294 294 295 294 294 295 296 297 297 299 300 300 299 299 300 300 300 302 302 302 302 303 303
262 264 265 268 271 274 275 279 280 282 285 287 287 286 286 286 288 289 290 292 292 293 293 292 293 293 295 297 297 298 299 300 301 301 300 300 301 302 302 301 301 302 303
261 264 266 268 269 270 274 277 279 281 283 285 284 285 286 287 288 289 290 291 291 291 291 292 292 293 294 295 295 295 297 298 299 300 301 302 302 303 304 303 303 303 303
260 262 265 268 269 271 273 275 276 276 279 283 284 286 287 287 288 288 289 290 290 291 291 291 292 293 293 293 293 295 294 296 298 299 301 301 302 303 304 305 304 303 304
Height
5912 5910 5908 5907 5906 5904 5903 5902 5901 5900 5899 5898 5897 5896 5895 5895 5894 5894 5893 5893 5893 5892 5892 5892 5892 5891 5891 5891 5890 5890 5889 5889 5889 5888 5888 5888 5887 5887 5887 5887 5886 5886 5885
5913 5912 5910 5909 5907 5906 5904 5903 5902 5901 5900 5899 5899 5898 5897 5896 5895 5895 5894 5894 5893 5893 5893 5893 5892 5892 5892 5891 5890 5890 5889 5889 5888 5888 5887 5887 5887 5886 5885 5885 5885 5884 5883
5914 5913 5912 5910 5909 5907 5906 5905 5904 5903 5901 5901 5900 5899 5898 5897 5896 5896 5895 5895 5894 5894 5893 5893 5893 5892 5892 5891 5890 5890 5889 5889 5888 5887 5887 5886 5885 5885 5884 5884 5883 5882 5882
5914 5913 5912 5911 5910 5908 5907 5906 5905 5904 5903 5902 5901 5900 5899 5898 5897 5896 5895 5895 5894 5894 5894 5893 5893 5892 5891 5890 5890 5889 5888 5888 5887 5886 5885 5885 5884 5883 5883 5882 5881 5881 5880
5915 5913 5912 5911 5910 5909 5907 5906 5905 5904 5903 5902 5901 5900 5899 5898 5898 5897 5896 5895 5894 5894 5893 5892 5892 5891 5890 5890 5889 5888 5887 5887 5886 5885 5884 5883 5882 5882 5881 5881 5880 5879 5878
5915 5913 5912 5911 5910 5909 5907 5906 5905 5905 5904 5902 5901 5901 5900 5899 5898 5897 5896 5895 5894 5893 5892 5892 5891 5890 5889 5889 5888 5887 5886 5886 5885 5884 5883 5882 5881 5880 5879 5879 5877 5877 5876
5914 5913 5912 5911 5910 5909 5907 5906 5905 5904 5903 5902 5901 5900 5900 5899 5898 5897 5896 5894 5893 5892 5891 5890 5890 5889 5888 5887 5886 5885 5884 5883 5883 5882 5881 5880 5879 5878 5877 5876 5875 5874 5873
5912 5912 5911 5910 5909 5908 5907 5906 5904 5904 5902 5901 5900 5900 5899 5898 5897 5896 5895 5894 5892 5891 5890 5889 5888 5887 5886 5885 5884 5884 5882 5881 5880 5879 5878 5877 5876 5875 5874 5874 5873 5871 5870
5911 5910 5909 5908 5908 5907 5905 5904 5903 5902 5901 5900 5898 5898 5898 5897 5896 5894 5893 5892 5891 5890 5888 5887 5886 5885 5884 5883 5882 5881 5880 5879 5878 5876 5875 5874 5873 5872 5871 5870 5869 5868 5867
5909 5909 5908 5907 5906 5905 5904 5903 5902 5901 5899 5898 5897 5897 5896 5895 5894 5893 5892 5891 5889 5888 5887 5885 5884 5883 5882 5881 5880 5878 5877 5875 5874 5873 5872 5871 5870 5869 5868 5867 5865 5864 5863
5906 5906 5906 5905 5904 5903 5902 5901 5900 5899 5898 5897 5896 5896 5894 5893 5892 5891 5890 5888 5887 5886 5884 5883 5882 5880 5879 5878 5877 5875 5874 5873 5872 5870 5869 5868 5867 5866 5865 5863 5862 5860 5859
5903 5903 5903 5902 5902 5901 5900 5899 5898 5897 5895 5894 5894 5893 5892 5891 5890 5888 5887 5886 5884 5883 5882 5880 5879 5877 5876 5875 5873 5872 5870 5870 5869 5867 5866 5865 5864 5862 5861 5859 5858 5856 5854
5899 5900 5900 5900 5899 5899 5898 5897 5895 5894 5892 5891 5891 5890 5889 5888 5887 5886 5884 5883 5881 5880 5878 5877 5875 5874 5873 5871 5869 5868 5866 5866 5865 5864 5862 5861 5860 5858 5857 5855 5853 5851 5849
5896 5896 5897 5896 5896 5896 5895 5894 5893 5891 5890 5889 5888 5888 5886 5885 5884 5883 5881 5880 5877 5875 5874 5873 5872 5870 5869 5867 5865 5863 5862 5861 5860 5859 5858 5857 5855 5853 5852 5850 5848 5846 5843
5892 5892 5893 5893 5893 5893 5892 5890 5889 5889 5888 5886 5886 5885 5883 5882 5881 5879 5877 5875 5872 5870 5870 5869 5868 5866 5865 5863 5860 5858 5856 5855 5855 5854 5853 5851 5850 5848 5846 5844 5842 5840 5837
5888 5889 5889 5889 5889 5889 5888 5887 5886 5886 5884 5883 5883 5881 5880 5878 5877 5875 5873 5871 5869 5867 5866 5866 5864 5862 5861 5859 5856 5854 5852 5851 5850 5849 5848 5846 5844 5842 5840 5838 5836 5834 5832
5884 5884 5884 5884 5884 5884 5884 5883 5882 5881 5881 5880 5878 5877 5876 5875 5873 5872 5870 5868 5866 5864 5863 5861 5860 5858 5857 5854 5852 5850 5848 5847 5846 5844 5842 5840 5838 5836 5834 5832 5830 5828 5826
5878 5879 5879 5879 5879 5879 5879 5878 5878 5877 5876 5875 5874 5873 5872 5871 5869 5868 5866 5864 5862 5860 5859 5857 5856 5854 5852 5850 5849 5846 5844 5842 5840 5839 5837 5834 5832 5829 5827 5825 5823 5821 5819
5872 5873 5873 5874 5874 5874 5874 5873 5872 5872 5871 5870 5869 5868 5867 5866 5865 5863 5861 5859 5857 5856 5854 5853 5851 5849 5848 5846 5844 5842 5839 5837 5835 5833 5830 5828 5826 5823 5821 5819 5817 5814 5812
5866 5867 5867 5868 5868 5868 5868 5867 5867 5866 5865 5864 5864 5863 5862 5861 5860 5858 5856 5854 5853 5851 5850 5848 5846 5844 5842 5840 5838 5836 5834 5831 5828 5826 5824 5822 5819 5817 5815 5812 5810 5808 5805
5860 5860 5861 5861 5862 5862 5862 5861 5861 5859 5859 5859 5857 5857 5856 5855 5854 5853 5851 5849 5847 5846 5844 5843 5841 5839 5837 5835 5832 5830 5827 5825 5822 5819 5817 5815 5813 5811 5808 5806 5803 5801 5798
5853 5854 5855 5855 5855 5856 5856 5855 5855 5854 5853 5853 5852 5852 5850 5849 5848 5847 5845 5844 5842 5840 5839 5837 5835 5833 5831 5828 5826 5823 5820 5818 5816 5813 5811 5809 5807 5804 5801 5799 5796 5793 5790
5846 5847 5848 5849 5849 5849 5849 5849 5848 5848 5848 5847 5846 5845 5844 5843 5842 5841 5839 5838 5836 5834 5833 5831 5829 5827 5824 5822 5819 5817 5814 5811 5809 5807 5804 5802 5800 5797 5795 5792 5789 5786 5783
5840 5841 5842 5842 5843 5843 5842 5842 5842 5842 5842 5841 5840 5839 5838 5837 5836 5834 5833 5831 5829 5828 5826 5824 5822 5820 5817 5815 5812 5810 5808 5805 5802 5800 5798 5796 5793 5791 5788 5785 5782 5778 5775
5833 5834 5835 5836 5836 5836 5836 5836 5835 5835 5835 5834 5833 5832 5831 5830 5829 5827 5826 5824 5822 5820 5819 5817 5815 5813 5811 5808 5806 5803 5801 5799 5796 5794 5791 5789 5786 5784 5780 5777 5774 5770 5767
5826 5827 5828 5829 5829 5829 5829 5829 5828 5827 5827 5827 5826 5825 5824 5823 5821 5820 5818 5816 5815 5813 5811 5809 5808 5805 5803 5801 5799 5796 5794 5792 5790 5787 5785 5782 5779 5776 5773 5770 5766 5762 5759